User: anonymous
Location: Fort Frances
(48.6170°N, 93.4170°W)
Time: 01:16:11
(UTC-05:00)
Language:

CZ-2C R/B - Orbit

View from above orbital plane
View from above orbital plane
View from above satellite
View from above satellite

Ground track
Ground track

The orbit data is extracted from the following two-line orbital elements,

1 36089U 09061B   14207.74026373  .00000159  00000-0  51241-4 0  3848
2 36089 098.1035 239.1214 0083517 058.1648 077.2542 14.49191685248663
Epoch (UTC): 26 July 2014 17:45:58
Eccentricity: 0.0083517
inclination: 98.1035°
perigee height: 669 km
apogee height: 787 km
right ascension of ascending node: 239.1214°
argument of perigee: 58.1648°
revolutions per day: 14.49191685
mean anomaly at epoch: 77.2542°
orbit number at epoch: 24866

The dashed part of the orbit path shows where the satellite is in the earth's shadow,  

DLR